Location: Bennemühlen
(52.5740°N, 9.7135°E)
Time: 02:28:23
(UTC+00:00)

Vanguard 2 Rocket - Pass Details

Date: 21 February 2026
Orbit: 553 x 3286 km, 32.9° (Epoch: 8 March)

Event Time Altitude Azimuth Distance (km) Brightness Sun altitude
Rises 10:16:42 0° 217° (SW) 7,173 11.9 24.8°
Reaches altitude 10° 10:22:33 10° 208° (SSW) 6,226 11.9 25.1°
Maximum altitude 10:37:34 29° 159° (SSE) 4,529 13.5 25.8°
Drops below altitude 10° 10:49:54 10° 108° (ESE) 5,108 11.2 26.2°
Sets 10:54:02 0° 98° (E) 5,745 11.2 26.4°
